CW2882 Weather Reports


time (UTC)temp
F
wind
direction
speed
knots
gust
knots
rain 1hr
in
rain 24hr
in
rain mn
in
humidity
%
barometer
mb
20260503224541 72 49 0.0 0.9 0.00 0.00 0.00 54 1012.0
20260503223035 69 349 0.0 4.3 0.00 0.00 0.00 57 1012.4
20260503221534 69 319 1.7 6.1 0.00 0.00 0.00 56 1012.5
20260503220033 69 49 2.6 6.1 0.00 0.00 0.00 56 1012.7
20260503214539 69 350 0.9 4.3 0.00 0.00 0.00 57 1012.8
20260503213036 70 323 1.7 2.6 0.00 0.00 0.00 57 1012.9
20260503211525 68 319 0.0 3.5 0.00 0.00 0.00 60 1013.0
20260503210022 67 41 2.6 5.2 0.00 0.00 0.00 60 1013.4
20260503204519 66 328 0.9 6.1 0.00 0.00 0.00 63 1013.6
20260503203017 66 24 2.6 6.1 0.00 0.00 0.00 63 1013.8
20260503201517 66 58 2.6 5.2 0.00 0.00 0.00 65 1014.0
20260503200014 66 303 2.6 6.1 0.00 0.00 0.00 64 1014.2
20260503194513 66 1 2.6 6.1 0.00 0.00 0.00 63 1014.1
20260503193011 65 1 1.7 5.2 0.00 0.00 0.00 65 1014.2
20260503191516 65 10 1.7 4.3 0.00 0.00 0.00 65 1014.3
20260503190008 65 311 0.9 3.5 0.00 0.00 0.00 65 1014.4
20260503184507 66 316 0.9 3.5 0.00 0.00 0.00 64 1014.5
20260503183007 65 344 0.0 3.5 0.00 0.00 0.00 67 1014.7
20260503181504 65 16 0.9 5.2 0.00 0.00 0.00 66 1014.7
20260503180117 64 12 1.7 6.1 0.00 0.00 0.00 67 1014.9
20260503174600 64 46 0.9 5.2 0.00 0.00 0.00 67 1015.0
20260503173108 63 360 1.7 4.3 0.00 0.00 0.00 69 1015.1
20260503171555 63 359 2.6 4.3 0.00 0.00 0.00 71 1015.2
20260503081531 58 136 0.0 0.9 0.00 0.00 0.00 67 1015.2
20260503071504 58 134 0.0 0.9 0.00 0.00 0.00 67 1015.1
20260503060104 61 126 0.9 2.6 0.00 0.00 0.00 64 1014.8
20260503054605 61 126 0.0 1.7 0.00 0.00 0.00 63 1014.9
20260503053059 60 129 0.0 1.7 0.00 0.00 0.00 64 1014.9
20260503051559 60 117 0.0 1.7 0.00 0.00 0.00 65 1014.9
20260503050058 61 121 0.0 0.9 0.00 0.00 0.00 64 1015.0
20260503044609 61 99 0.0 0.9 0.00 0.00 0.00 63 1014.8
20260503043059 62 141 0.0 1.7 0.00 0.00 0.00 62 1014.8
20260503041556 61 107 0.0 0.0 0.00 0.00 0.00 62 1014.7
20260503041502 61 109 0.0 0.0 0.00 0.00 0.00 62 1014.6
20260503034601 62 94 0.0 2.6 0.00 0.00 0.00 60 1014.4
20260503033058 63 117 0.0 0.9 0.00 0.00 0.00 61 1014.2
20260503031554 65 96 0.0 2.6 0.00 0.00 0.00 58 1014.1
20260503030124 67 22 0.0 1.7 0.00 0.00 0.00 55 1014.0
20260503024557 67 72 0.0 2.6 0.00 0.00 0.00 56 1014.0
20260503023051 67 45 0.9 2.6 0.00 0.00 0.00 56 1014.1
20260503021559 67 338 0.0 3.5 0.00 0.00 0.00 57 1014.0
20260503020049 67 41 0.9 4.3 0.00 0.00 0.00 57 1014.2
20260503014601 67 64 1.7 5.2 0.00 0.00 0.00 56 1014.3
20260503013050 69 348 0.9 4.3 0.00 0.00 0.00 54 1014.4
20260503011552 69 58 0.9 3.5 0.00 0.00 0.00 54 1014.5
20260503010048 70 118 0.0 2.6 0.00 0.00 0.00 56 1014.6
20260503004542 71 315 0.0 1.7 0.00 0.00 0.00 55 1014.7
20260503003052 70 352 0.0 1.7 0.00 0.00 0.00 57 1014.7
20260503001537 70 304 0.0 2.6 0.00 0.00 0.00 56 1014.8
20260503000036 69 326 0.0 2.6 0.00 0.00 0.00 57 1014.9
20260502234533 69 37 0.0 3.5 0.00 0.00 0.00 56 1015.1
20260502233030 69 313 0.0 2.6 0.00 0.00 0.00 56 1015.3
20260502231528 69 302 0.0 2.6 0.00 0.00 0.00 57 1015.4
20260502230025 68 297 0.0 3.5 0.00 0.00 0.00 61 1015.5